DELTA 1 R/B, 1729

Orbit data source: Space-Track

DELTA 1 R/B, 1729 is space debris in LEO originally from a launch on Sat, 06 Nov 1965 UTC launched from the Air Force Eastern Test Range (AFETR). Debris objects in space refer to the collection of defunct objects orbiting the Earth. Examples of debris include non-operational satellites, rocket bodies, and fragments generated from explosions, collisions, or faulty payload assembly.

Loading next visibility...
Identifier
1729, 1965-089B
Orbit
LEO
Country
Flag of USUS
Related business
Manufacturer
ABL
Mission
Spacecraft
Bus & Motor
ALTAIR, Unknown motor
Mass
~60 kg wet, ~60 kg dry
Launch date (UTC)
1965-11-06 (61 years ago)
Launch vehicle
Unknown
Launch site
Air Force Eastern Test Range (AFETR)
Object type
Payload
Rocket body
Debris
Shape & HBR
CYL, 0.8 m
Radar Cross Section
Medium (>0.1 m² and <1 m²)

Expand to show TLE details & history
Last TLE update: 11 hours ago

TLE from 11 hours ago
0 DELTA 1 R/B
1 01729U 65089B   26208.62867024 -.00000014  00000-0  36643-3 0  9991
2 01729  59.3939 282.2090 0710594 216.4851 314.1503 11.97579624655267
Epoch: 2026-07-27T15:05Z
TLE epoch observation values (Epoch: 2026-07-27T15:05:17.108Z)
Latitude
13.3599°
Longitude
-77.45689°
Altitude
1,315.485 km
Speed
7.367 km/s
True Right ascension
06h 16m 41s
True Declination
13° 17' 18"
Sunlit
Object was in daylight at epoch
Visualization orbit readout
Latitude
Unknown
Longitude
Unknown
Altitude
Unknown
Speed
Unknown
Apparent Right ascension
Unknown
Apparent Declination
Unknown
Sunlit
N/A
Visualization observer readout
Local Sidereal Time
15:13:31
Azimuth
Unknown
Elevation
Unknown
Doppler factor
Unknown
Orbital elements
Apogee altitude
2,264.504 km
Perigee altitude
1,117.713 km
Semi-major axis
8,069.246 km
Eccentricity
0.07106
Inclination
59.3939°
RAAN
282.209°
Arg. of periapsis
216.4851°
True anomaly
307.93579°
Mean anomaly
314.1503°
Eccentric anomaly
311.08137°
Mean motion
2.99429 °/min
Orbital period
120.23 mins
BSTAR
0.00036643
Loading maneuver chart data...
Computing Atmospheric mass density...
Loading historical data...
Loading historical data...
Loading historical data...
Loading historical data...
Loading historical data...
Loading historical data...
Loading historical data...

Documentation

Showing up to 5 results
|